576  
NZUS93 KARX 250010  
HRRWXR  
 
CURRENT HOURLY OBSERVATIONS ACROSS  
MUCH OF THE UPPER MISSISSIPPI VALLEY  
NATIONAL WEATHER SERVICE LA CROSSE WI  
700 PM CDT THU JUL 24 2014  
 
   
..SOUTHEAST MINNESOTA
 
 
 
CITY SKY/WX TMP DP RH WIND PRES REMARKS  
ROCHESTER CLOUDY 73 58 59 S8 29.97F  
ROCHESTER/MAYO FAIR 74 55 49 S5 29.96F  
WINONA CLOUDY 73 59 60 CALM 29.97F  
AUSTIN CLOUDY 73 61 64 S10G17 29.95S  
ALBERT LEA CLOUDY 73 59 60 S12G17 29.95R  
DODGE CENTER CLOUDY 75 61 60 S13 29.95R  
PRESTON CLOUDY 71 63 75 S10 29.97F  
OWATONNA CLOUDY 75 57 53 S14G21 29.92F  
FARIBAULT CLOUDY 79 54 41 S14G23 29.89F  

 
   
..ELSEWHERE IN MINNESOTA
 
 
 
CITY SKY/WX TMP DP RH WIND PRES REMARKS  
MINNEAPOLIS CLOUDY 79 59 50 S7 29.92R  
INTNL FALLS PTSUNNY 72 57 59 CALM 29.94R  
DULUTH CLOUDY 71 56 58 SE7 29.94S  
RED WING CLOUDY 79 57 47 SE7 29.92R  
REDWOOD FALLS MOSUNNY 72 62 71 S17G25 29.88F  
MANKATO PTSUNNY 73 59 60 S15G22 29.91F  
WORTHINGTON PTSUNNY 66 59 77 S18G29 29.90F  
FAIRMONT CLOUDY 70 59 68 S15 29.92F  

 
   
..SOUTHWEST WISCONSIN
 
 
 
CITY SKY/WX TMP DP RH WIND PRES REMARKS  
LA CROSSE NOT AVBL  
PRAIRIE DU CHI CLOUDY 75 59 57 CALM 30.03F  
BOSCOBEL CLOUDY 76 59 55 S5 30.05F  
LONE ROCK CLOUDY 78 60 53 SW5 30.05F  
PLATTEVILLE CLOUDY 73 59 62 S5 30.08F  
FORT MC COY CLOUDY 74 56 52 S5 30.02F  
CAMP DOUGLAS CLOUDY 73 59 60 S5 30.02F  
VIROQUA FAIR 73 58 61 S6 30.03F  
WIS DELLS PTSUNNY 73 54 49 SW3 30.05F  

 
   
..ELSEWHERE IN WISCONSIN
 
 
 
CITY SKY/WX TMP DP RH WIND PRES REMARKS  
MILWAUKEE MOSUNNY 66 44 45 SE9 30.09S  
MADISON PTSUNNY 75 55 49 CALM 30.06F  
GREEN BAY SUNNY 74 52 46 S5 30.03F  
EAU CLAIRE CLOUDY 76 57 51 SE14 29.94F  
BLACK RVR FLS FAIR 75 55 49 S3 30.00F  
MEDFORD PTSUNNY 71 55 56 S5 30.01F  
WAUSAU PTSUNNY 73 51 46 S6 30.00F  
WIS RAPIDS PTSUNNY 75 53 46 SW7 30.03F  
MARSHFIELD PTSUNNY 73 57 57 SW5 30.01F  
RICE LAKE CLOUDY 74 55 51 SE9 29.98R  

 
   
..NORTHEAST IOWA
 
 
 
CITY SKY/WX TMP DP RH WIND PRES REMARKS  
WATERLOO LGT RAIN 73 59 61 SW7 30.05F  
DUBUQUE CLOUDY 71 61 70 S5 30.08S  
DECORAH CLOUDY 73 61 64 VRB6G13 29.99F  
MASON CITY CLOUDY 68 63 84 S7 30.00F  
CHARLES CITY CLOUDY 72 59 64 S13G20 29.94F  
OELWEIN CLOUDY 72 61 68 S7 30.05F  

 
   
..ELSEWHERE IN IOWA
 
 
 
CITY SKY/WX TMP DP RH WIND PRES REMARKS  
DES MOINES LGT RAIN 74 63 68 NE10 30.12R  
IOWA CITY CLOUDY 74 60 61 SW6 30.09S  
FORT DODGE CLOUDY 64 61 88 S17G26 29.92F  
MARSHALLTOWN LGT RAIN 69 65 86 W6 30.11R  
CEDAR RAPIDS CLOUDY 71 61 70 W6 30.09R  

 
   
..NORTHERN ILLINOIS
 
 
 
CITY SKY/WX TMP DP RH WIND PRES REMARKS  
CHICAGO-OHARE MOSUNNY 71 43 36 NE7 30.09S  
DUPAGE SUNNY 71 48 43 SE7 30.08R  
CHICAGO-MIDWAY MOSUNNY 72 46 39 E8 30.09S  
MOLINE PTSUNNY 73 59 61 S3 30.07S  
ROCKFORD PTSUNNY 73 54 51 SW6 30.09S  
STERLING PTSUNNY 72 59 64 CALM 30.09R  
PEORIA MOSUNNY 76 54 46 NE3 30.08R  

 
 
NOTE: "FAIR" INDICATES FEW OR NO CLOUDS BELOW 12,000 FEET WITH NO  
SIGNIFICANT WEATHER AND/OR OBSTRUCTIONS TO VISIBILITY. WIND  
SPEEDS ARE IN MILES-PER-HOUR.  
 
CLICK HERE TO GO TO PREVIOUS BULLETINS.

The Nexlab WI Page
The Nexlab IA Page
The Nexlab MN Page Main Text Page